Location: Bad Salzschlirf
(50.3750°N, 9.3000°E)
Time: 17:51:37
(UTC+02:00)

ISS - Pass Details

Date: 26 May 2020
Orbit: 417 x 420 km, 51.6° (Epoch: 26 May)

Event Time Altitude Azimuth Distance (km) Brightness Sun altitude
Rises 23:07:48 0° 286° (WNW) 2,367 0.9 -12.6°
Reaches altitude 10° 23:09:55 10° 283° (WNW) 1,502 -0.3 -12.8°
Maximum altitude 23:13:15 60° 203° (SSW) 487 -3.7 -13.0°
Enters shadow 23:15:06 23° 130° (SE) 929 -2.6 -13.2°
